www.pogodaiklimat.ru

Погода и климат >> Архив погоды >> Пакистан >> Ханпур


ПОГОДА в Ханпуре

  • Прогноз погоды в Ханпуре
  • Монитор погоды в Ханпуре

АРХИВ ПОГОДЫ в Ханпуре

Время (UTC), дата Ветер
(напр.,м/с)
 
Видим.   Явления Облачность Т
(С)
Тd
(С)
f
(%)
Тe
(С)
Тes
(С)
Комфортность P
(гПа)
Po
(гПа)
Тmin
(С)
Tmax
(С)
R
(мм)
R24
(мм)
S
(см)
21 17.03 штиль 0 2000 м дым ясно +19.5 +14.4 72 +21 +21 комфорт 1013.6 1000.0
00 18.03 штиль 0 2000 м дымка ясно +18.0 +14.6 81 +18 +18 1013.6 1003.2
03 18.03 штиль 0 2000 м дымка 5/0
[Ac trans]
+17.5 +14.0 80 +17 +20 1016.0 1005.5 +16.2
06 18.03 штиль 0 2000 м дым 10/4 1200 м
[Sc Ac trans]
+22.0 +15.4 66 +26 +31 душно 1016.8 1006.5
09 18.03 штиль 0 2000 м дым 10/4 1200 м
[Sc Ac trans]
+26.0 +16.4 55 +29 +34 душно 1014.3 1004.2
12 18.03 З 2 4000 м дым 5/0
[Ac trans]
+27.0 +16.6 53 +31 +32 душно 1012.2 1002.1 +28.5
15 18.03 штиль 0 2000 м дым 4/0
[Ac trans]
+22.0 +16.3 70 +26 +26 душно 1012.0 1000.0
18 18.03 штиль 0 2000 м дым 4/0
[Ac trans]
+19.0 +14.7 76 +20 +20 1013.4 1003.0
21 18.03 штиль 0 2000 м дымка 4/0
[Ac trans]
+16.5 +12.9 79 +16 +16 1012.2 1000.0
00 19.03 штиль 0 2000 м дымка 4/0
[Ac trans]
+15.5 +12.8 84 +15 +15 1012.8 1002.3
03 19.03 штиль 0 2000 м дымка 4/0
[Ac trans]
+15.0 +12.3 84 +15 +18 1014.5 1004.0 +14.5
06 19.03 штиль 0 2000 м дым ясно +23.0 +13.6 55 +26 +47 жарко 1011.7 1001.5
09 19.03 штиль 0 4000 м мгла ясно +28.0 +14.9 45 +31 +49 душно 1007.2 997.2
12 19.03 штиль 0 4000 м мгла ясно +30.0 +13.4 36 +31 +34 жарко 1005.0 995.0 +30.3
15 19.03 штиль 0 4000 м дым ясно +25.0 +17.0 61 +29 +29 душно 1005.9 1000.0
18 19.03 СВ 6 4000 м дым 4/0
[Ac trans]
+19.0 +15.6 81 +20 +20 1008.4 998.0
21 19.03 СВ 2 2000 м дымка 5/0
[Ac trans]
+18.0 +15.5 85 +19 +19 1007.0 1000.0
00 20.03 СВ 1 2000 м дымка 4/0
[Ac trans]
+17.0 +14.4 85 +18 +18 1008.3 997.8
03 20.03 СВ 1 2000 м дымка 4/0
[Ac trans]
+16.0 +13.3 84 +17 +21 1009.9 999.4 +14.5
06 20.03 СВ 4 2000 м дым 4/0
[Ac trans]
+21.5 +13.8 62 +24 +32 комфорт 1011.5 1001.3
09 20.03 СВ 3 2000 м дым ясно +26.0 +15.4 52 +29 +41 душно 1010.1 1000.0
12 20.03 штиль 0 4000 м дым ясно +27.0 +16.6 53 +31 +33 душно 1008.8 998.7 +27.5
15 20.03 штиль 0 4000 м дым ясно +23.0 +17.4 71 +28 +28 душно 1009.5 1000.0
18 20.03 штиль 0 4000 м дым ясно +20.0 +14.9 72 +22 +22 комфорт 1011.7 1001.4
21 20.03 штиль 0 2000 м дым ясно +18.0 +14.6 81 +18 +18 1010.0 999.6
00 21.03 штиль 0 2000 м дымка ясно +16.5 +13.9 85 +16 +16 1010.6 1000.1
03 21.03 штиль 0 2000 м дымка ясно +17.5 +14.0 80 +17 +22 1012.1 1001.7 +15.5
06 21.03 СВ 5 2000 м дым ясно +25.0 +15.1 54 +28 +36 жарко 1015.6 1005.4
09 21.03 СВ 7 4000 м мгла ясно +28.0 +12.8 39 +29 +33 жарко 1014.3 1004.2
12 21.03 штиль 0 4000 м мгла 4/0
[Ac trans]
+28.0 +12.8 39 +29 +32 жарко 1011.5 1001.4 +28.5
15 21.03 штиль 0 4000 м дым ясно +24.0 +15.8 60 +27 +27 жарко 1011.8 1000.0
18 21.03 штиль 0 4000 м дым ясно +20.5 +13.6 65 +23 +23 комфорт 1014.6 1004.3
21 21.03 штиль 0 4000 м дым ясно +18.0 +12.7 71 +18 +18 1013.0 1000.0
00 22.03 штиль 0 2000 м дымка 5/0
[Ac lent]
+17.0 +13.5 80 +17 +17 1012.8 1002.3
03 22.03 штиль 0 2000 м дымка ясно +18.0 +14.6 81 +18 +23 1014.3 1003.9 +16.1
06 22.03 штиль 0 4000 м мгла ясно +26.5 +14.0 46 +29 +50 жарко 1018.1 1007.9
09 22.03 штиль 0 4000 м мгла ясно +29.5 +12.7 36 +31 +50 жарко 1015.5 1000.0
12 22.03 штиль 0 4000 м мгла 5/0
[Ac trans]
+29.0 +11.9 35 +30 +32 жарко 1014.1 1004.1 +30.5
15 22.03 штиль 0 4000 м дым 5/0
[Ac trans]
+25.0 +16.1 58 +28 +28 жарко 1013.8 1003.6
18 22.03 штиль 0 4000 м дым ясно +22.0 +12.3 54 +24 +24 комфорт 1015.8 1005.5
21 22.03 штиль 0 4000 м дым ясно +20.0 +15.8 77 +22 +22 комфорт 1014.8 1000.0
00 23.03 штиль 0 2000 м дымка 5/0
[Ac lent]
+18.5 +15.1 81 +19 +19 1014.2 1003.8
03 23.03 штиль 0 2000 м дымка 4/0
[Ac trans]
+18.0 +14.6 81 +18 +22 1016.8 1006.4 +17.5
06 23.03 штиль 0 2000 м мгла 4/0
[Ac trans]
+26.5 +14.0 46 +29 +45 жарко 1016.1 1006.0
09 23.03 СВ 1 4000 м мгла ясно +30.0 +13.4 36 +31 +48 жарко 1012.9 1000.0
12 23.03 СВ 2 4000 м мгла 4/0
[Ac trans]
+30.5 +15.2 40 +33 +35 душно 1010.0 1000.0 +31.5
15 23.03 СВ 2 4000 м дым ясно +23.0 +14.6 59 +27 +27 душно 1010.5 1000.0
18 23.03 СВ 1 4000 м дым ясно +20.0 +14.0 68 +23 +23 комфорт 1013.2 1002.9
21 23.03 СВ 1 2000 м дым ясно +19.0 +13.8 72 +22 +22 комфорт 1011.6 1000.0
00 24.03 СВ 2 2000 м дым 5/0
[Ac trans]
+18.0 +13.6 75 +19 +19 1011.4 1001.0
03 24.03 СВ 2 2000 м дым 4/0
[Ac trans]
+18.5 +14.2 76 +20 +23 1013.0 1002.6 +17.1
06 24.03 СВ 6 2000 м дым 6/0
[As op]
+23.5 +14.3 56 +26 +29 жарко 1015.1 1004.9
09 24.03 СВ 6 4000 м дым 6/0
[Ac trans]
+26.5 +16.0 52 +30 +33 душно 1014.3 1004.2
12 24.03 СВ 1 4000 м дым 5/0
[Ac trans]
+27.0 +17.6 56 +31 +33 душно 1012.0 1001.9 +27.5
15 24.03 штиль 0 4000 м дым 6/0
[Ac trans]
+25.0 +17.0 61 +29 +29 душно 1011.2 1000.0
18 24.03 штиль 0 4000 м дым 6/0
[Ac trans]
+23.0 +17.4 71 +28 +28 душно 1013.8 1003.6

 

Местоположение метеостанции Ханпур (Пакистан): широта 28.65 долгота 70.68 высота над уровнем моря 88 м.

В архиве по умолчанию представлена погода в Ханпуре за последнюю неделю. Архивные данные за месяц целиком и за предыдущие месяцы, начиная с января 2011 года, Вы можете получить, выбрав интересующий диапазон дат из раскрывающегося списка и нажав кнопку "Ввод!".


*Определитесь, кто Вы:
робот инопланетянин человек

Внимание! Время в таблицах - всемирное. Для получения местного времени необходимо прибавить поправку, которая равна 5 ч.

Смотрите также архив погоды в соседних городах и на ближайших метеорологических станциях:

Погода в Рахим Яр Хан (Пакистан) (43 км)
Погода в Бахавалпуре (Пакистан) (136 км)
Погода а Бахавалпур аэропорту (Пакистан) (136 км)
Погода в Дера Гази Хан (Пакистан) (156 км)
Погода в Бархане (Пакистан) (166 км)
Погода в Мултане (Пакистан) (187 км)
Погода в Джайсалмере (Раджастхан, Индия) (196 км)
Погода в Кот Адду (Пакистан) (202 км)
Погода в Рохри (Пакистан) (206 км)
Погода в Суккуре (Пакистан) (214 км)

Пояснения к столбцам:

Ветер - указаны скорость ветра в м/с - средняя за 10 мин, порывы в срок и между сроками (в фигурных скобках) и направление, откуда дует ветер: С - северный, СВ - северо-восточный, В - восточный, ЮВ - юго-восточный, Ю - южный, ЮЗ - юго-западный, З - западный, СЗ - северо-западный.
Видимость - горизонтальная дальность видимости в метрах или километрах. При видимости от 1 до 10 км при отсутствии осадков обычно наблюдается дымка, при ухудшении видимости до 1 км и менее - туман. В сухую погоду видимость может ухудшаться дымом, пылью или мглою.
Явления - указаны атмосферные явления, наблюдавшиеся в срок или в последний час перед сроком; фигурными скобками обозначены явления, наблюдавшиеся между сроками (за 1-3 часа до срока); квадратными скобками обозначены град или гололедные отложения с указанием их диаметра в мм.
Облачность - указаны через наклонную черту общая и нижняя облачность в баллах и высота нижней границы облаков в метрах; квадратными скобками обозначены формы облаков: Ci - перистые, Cs - перисто-слоистые, Cc - перисто-кучевые, Ac - высококучевые, As - высокослоистые, Sc - слоисто-кучевые, Ns - слоисто-дождевые, Cu - кучевые, Cb - кучево-дождевые. Подробнее классификацию облаков см. в Атласе облаков (PDF).
T - Температура воздуха - температура, измеренная на высоте 2 м над землей.
Td - Температура точки росы - температура, при понижении до которой содержащийся в воздухе водяной пар достигнет насыщения.
f - Относительная влажность воздуха - влажноcть воздуха, измеренная на высоте 2 м над землей.
Te - Эффективная температура - температура, которую ощущает одетый по сезону человек в тени. Характеристика душности погоды. При расчете учитывается влияние влажности воздуха и скорости ветра на теплоощущения человека.
Tes - Эффективная температура на солнце - температура, которую ощущает человек, с поправкой на солнечный нагрев. Характеристика знойности погоды. Зависит от высоты солнца над горизонтом, облачности и скорости ветра. Ночью, в пасмурную погоду, а также при ветре 12 м/с и более поправка равна нулю.
P - Атмосферное давление - приведенное к уровню моря атмосферное давление.
Po - Атмосферное давление - измеренное на уровне метеостанции атмосферное давление.
Tmin - Минимальная температура - минимум температуры воздуха на высоте 2 м над землей.
Tmax - Максимальная температура - максимум температуры воздуха на высоте 2 м над землей.
R - Количество осадков - Количество выпавших осадков за период времени, мм. При наведении курсора мыши на число - период времени, за который выпало указанное количество осадков.
R24 - Количество осадков - Количество выпавших осадков за 24 часа, мм.
S - Снежный покров - Высота снежного покрова, см. При наведении курсора мыши на число - состояние снежного покрова и степень покрытия местности в баллах.